User: anonymous   Login
Location: Unspecified
(0.0000°N, 0.0000°E)
Time: 22:29:53
(UTC+00:00)
Language:

ESTCUBE 1 - Orbit

View from above orbital plane
View from above orbital plane
View from above satellite
View from above satellite

Ground track
Ground track

The orbit data is extracted from the following two-line orbital elements,

1 39161U 13021C   18344.20850934  .00000151  00000-0  31803-4 0  9994
2 39161  98.0023  67.3291 0008543 209.0286 151.0469 14.72135313300345
Epoch (UTC): 10 December 2018 05:00:15
Eccentricity: 0.0008543
inclination: 98.0023°
perigee height: 648 km
apogee height: 660 km
right ascension of ascending node: 67.3291°
argument of perigee: 209.0286°
revolutions per day: 14.72135313
mean anomaly at epoch: 151.0469°
orbit number at epoch: 30034

The dashed part of the orbit path shows where the satellite is in the earth's shadow,  

DLR